Location: Allentsteig
(48.6833°N, 15.3167°E)
Time: 01:11:37
(UTC+00:00)

Cosmos 2298 Rocket - Pass Details

Date: 24 January 2021
Orbit: 775 x 784 km, 74.0° (Epoch: 03 March)

Event Time Altitude Azimuth Distance (km) Brightness Sun altitude
Exits shadow 04:56:57 11° 332° (NNW) 2,265 6.1 -16.5°
Maximum altitude 05:02:02 69° 251° (WSW) 843 4.0 -15.7°
Drops below altitude 10° 05:07:18 10° 169° (S) 2,336 6.8 -14.8°
Sets 05:09:41 0° 167° (SSE) 3,259 7.6 -14.4°
